TimeCDT,TemperatureF,Dew PointF,Humidity,Sea Level PressureIn,VisibilityMPH,Wind Direction,Wind SpeedMPH,Gust SpeedMPH,PrecipitationIn,Events,Conditions,WindDirDegrees,DateUTC
12:53 AM,43.0,35.1,74,29.85,8.0,SSE,5.8,-,N/A,,Overcast,150,2014-04-07 05:53:00
1:53 AM,43.0,35.1,74,29.83,10.0,NNW,5.8,-,N/A,,Overcast,330,2014-04-07 06:53:00
2:53 AM,39.0,34.0,82,29.82,8.0,Calm,Calm,-,N/A,,Clear,0,2014-04-07 07:53:00
3:53 AM,37.9,33.1,83,29.82,7.0,Calm,Calm,-,N/A,,Overcast,0,2014-04-07 08:53:00
4:53 AM,39.9,34.0,79,29.81,8.0,Calm,Calm,-,N/A,,Overcast,0,2014-04-07 09:53:00
5:53 AM,39.9,34.0,79,29.80,8.0,NNW,4.6,-,N/A,,Overcast,340,2014-04-07 10:53:00
6:53 AM,37.9,34.0,86,29.82,6.0,Calm,Calm,-,N/A,,Overcast,0,2014-04-07 11:53:00
7:53 AM,39.0,34.0,82,29.84,4.0,NNW,4.6,-,N/A,,Haze,340,2014-04-07 12:53:00
8:53 AM,46.0,39.0,76,29.85,10.0,NNW,4.6,-,N/A,,Clear,340,2014-04-07 13:53:00
9:53 AM,46.9,39.0,74,29.86,10.0,North,10.4,-,N/A,,Clear,350,2014-04-07 14:53:00
10:53 AM,48.9,39.9,71,29.86,10.0,NNW,12.7,-,N/A,,Clear,340,2014-04-07 15:53:00
11:53 AM,52.0,39.9,63,29.86,10.0,North,10.4,-,N/A,,Clear,360,2014-04-07 16:53:00
12:53 PM,54.0,39.9,59,29.85,10.0,North,9.2,-,N/A,,Clear,360,2014-04-07 17:53:00
1:53 PM,55.9,39.9,55,29.84,10.0,NW,8.1,-,N/A,,Scattered Clouds,320,2014-04-07 18:53:00
2:53 PM,55.4,39.2,54,29.79,10.0,NNW,9.2,-,N/A,,Clear,330,2014-04-07 19:53:00
3:53 PM,57.0,37.0,47,29.83,10.0,NW,16.1,19.6,N/A,,Clear,320,2014-04-07 20:53:00
4:53 PM,57.0,34.0,42,29.82,10.0,North,12.7,18.4,N/A,,Scattered Clouds,350,2014-04-07 21:53:00
5:53 PM,57.0,32.0,39,29.81,10.0,NNW,11.5,-,N/A,,Mostly Cloudy,330,2014-04-07 22:53:00
6:53 PM,55.0,28.0,35,29.83,10.0,NW,12.7,23.0,N/A,,Clear,320,2014-04-07 23:53:00
7:53 PM,50.0,28.9,44,29.84,10.0,NNW,8.1,-,N/A,,Clear,330,2014-04-08 00:53:00
8:53 PM,46.9,30.0,52,29.86,10.0,NW,6.9,-,N/A,,Clear,320,2014-04-08 01:53:00
9:53 PM,44.1,30.0,58,29.87,10.0,NW,8.1,-,N/A,,Clear,320,2014-04-08 02:53:00
10:53 PM,42.1,30.0,62,29.87,10.0,NW,10.4,-,N/A,,Clear,320,2014-04-08 03:53:00
11:53 PM,39.0,28.9,67,29.88,10.0,NW,8.1,-,N/A,,Clear,320,2014-04-08 04:53:00